Gainesville, GA

9:31 PM EST on January 22, 2018 (GMT -0500)
Gilmer Memorial

Weather History for KGVL - February, 2013

Change the Weather History Date:

Sunday, February 10, 2013

  Actual Average Record
Temperature  
Mean Temperature 47 °F 45 °F  
Max Temperature 55 °F 54 °F 76 °F (1938)
Min Temperature 39 °F 35 °F 9 °F (1971)
Degree Days  
Heating Degree Days 18 21  
Month to date heating degree days 214  
Since 1 July heating degree days 2132  
Moisture  
Dew Point 39 °F    
Average Humidity 75    
Maximum Humidity 100    
Minimum Humidity 44    
Precipitation  
Precipitation 1.38 in 0.15 in 1.55 in (1990)
Month to date precipitation 1.57  
Year to date precipitation 6.60  
Snow  
Snow 0.00 in - - ()
Month to date snowfall  
Since 1 July snowfall  
Snow Depth -    
Sea Level Pressure  
Sea Level Pressure 30.23 in    
Wind  
Wind Speed 9 mph (ENE)    
Max Wind Speed 14 mph    
Max Gust Speed 21 mph    
Visibility 6 miles    
Events Rain , Thunderstorm    
T = Trace of Precipitation, MM = Missing Value Source: NWS Daily Summary

Daily Weather History Graph

Daily Weather History Graph

Search for Another Location

Airport or City:

Trip Planner

Search our weather history database for the weather conditions in past years. The results will help you decide how hot, cold, wet, or windy it might be!

Date:

Astronomy

Feb. 10, 2013 Rise Set
Actual Time 7:25 AM EST 6:14 PM EST
Civil Twilight 6:59 AM EST 6:40 PM EST
Nautical Twilight 6:29 AM EST 7:09 PM EST
Astronomical Twilight 6:00 AM EST 7:39 PM EST
Moon 7:17 AM EST (2/10) 6:59 PM EST (2/10)
Length of Visible Light 11h 41m
Length of Day
10h 49m
New Moon, 0% of the Moon is Illuminated
Feb 10
New Moon
Feb 17
First Quarter
Feb 25
Full
Mar 4
Last Quarter
Mar 11
New

Hourly Weather History & Observations

Time (EST) Temp. Windchill Dew Point Humidity Pressure Visibility Wind Dir Wind Speed Gust Speed Precip Events Conditions
12:53 AM 44.1 °F 41.5 °F 26.1 °F 49% 30.28 in 10.0 mi East 4.6 mph - N/A   Clear
1:53 AM 45.0 °F 40.6 °F 26.1 °F 48% 30.29 in 10.0 mi East 8.1 mph - N/A   Clear
2:53 AM 45.0 °F 40.1 °F 26.1 °F 48% 30.28 in 10.0 mi East 9.2 mph - N/A   Clear
3:53 AM 44.1 °F 41.5 °F 25.0 °F 47% 30.30 in 10.0 mi East 4.6 mph - N/A   Clear
4:53 AM 43.0 °F 38.8 °F 26.1 °F 51% 30.30 in 10.0 mi East 6.9 mph - N/A   Clear
5:53 AM 42.1 °F 37.1 °F 26.1 °F 53% 30.29 in 10.0 mi East 8.1 mph - N/A   Clear
6:53 AM 41.0 °F 35.8 °F 26.1 °F 55% 30.32 in 10.0 mi East 8.1 mph - N/A   Clear
7:53 AM 39.9 °F 33.4 °F 27.0 °F 60% 30.32 in 10.0 mi East 10.4 mph - N/A   Clear
8:53 AM 44.1 °F 38.6 °F 28.0 °F 53% 30.32 in 10.0 mi East 10.4 mph - N/A   Clear
9:53 AM 46.0 °F 41.4 °F 28.9 °F 51% 30.36 in 10.0 mi ESE 9.2 mph - N/A   Clear
10:53 AM 50.0 °F - 28.9 °F 44% 30.34 in 10.0 mi ESE 12.7 mph 19.6 mph N/A   Clear
11:53 AM 52.0 °F - 30.9 °F 45% 30.31 in 10.0 mi East 10.4 mph 19.6 mph N/A   Mostly Cloudy
12:53 PM 55.0 °F - 35.1 °F 47% 30.23 in 10.0 mi East 13.8 mph 20.7 mph N/A   Partly Cloudy
1:53 PM 55.0 °F - 37.9 °F 53% 30.22 in 10.0 mi ESE 10.4 mph 17.3 mph N/A   Overcast
2:53 PM 55.9 °F - 39.0 °F 53% 30.18 in 10.0 mi East 10.4 mph - N/A   Overcast
3:53 PM 55.9 °F - 39.9 °F 55% 30.15 in 10.0 mi East 9.2 mph 17.3 mph N/A   Overcast
4:53 PM 51.1 °F - 45.0 °F 80% 30.14 in 6.0 mi East 9.2 mph - 0.07 in Rain Light Rain
5:53 PM 48.9 °F - 45.0 °F 86% 30.15 in 4.0 mi NE 9.2 mph - 0.15 in Rain Heavy Rain
6:13 PM 48.2 °F - 44.6 °F 87% 30.18 in 2.5 mi NNE 10.4 mph - 0.11 in Rain Heavy Rain
6:22 PM 46.4 °F 41.5 °F 44.6 °F 93% 30.17 in 2.5 mi NE 10.4 mph - 0.15 in Rain , Thunderstorm Heavy Rain
6:35 PM 46.4 °F 41.9 °F 44.6 °F 93% 30.18 in 2.0 mi NE 9.2 mph - 0.23 in Rain Heavy Rain
6:46 PM 46.4 °F 41.1 °F 44.6 °F 93% 30.18 in 2.5 mi ENE 11.5 mph - 0.29 in Rain Heavy Rain
6:53 PM 46.9 °F - 45.0 °F 93% 30.19 in 3.0 mi NE 11.5 mph - 0.32 in Rain Rain
7:02 PM 46.4 °F 41.9 °F 44.6 °F 93% 30.20 in 2.5 mi NNE 9.2 mph - 0.04 in Rain Heavy Rain
7:53 PM 46.0 °F 41.4 °F 44.1 °F 93% 30.22 in 2.5 mi NE 9.2 mph - 0.36 in Rain Heavy Rain
8:18 PM 44.6 °F 40.2 °F 44.6 °F 100% 30.23 in 2.5 mi NE 8.1 mph - 0.09 in Rain Rain
8:29 PM 46.4 °F 41.9 °F 44.6 °F 93% 30.25 in 2.5 mi North 9.2 mph - 0.13 in Rain Rain
8:38 PM 46.4 °F 42.9 °F 44.6 °F 93% 30.25 in 2.5 mi NE 6.9 mph - 0.17 in Rain Heavy Rain
8:45 PM 46.4 °F 43.5 °F 44.6 °F 93% 30.25 in 2.5 mi NE 5.8 mph - 0.19 in Rain Rain
8:53 PM 46.0 °F 41.9 °F 44.1 °F 93% 30.25 in 2.5 mi NE 8.1 mph - 0.21 in Rain Rain
9:09 PM 46.4 °F 41.9 °F 44.6 °F 93% 30.23 in 3.0 mi ENE 9.2 mph - 0.05 in Rain Rain
9:41 PM 46.4 °F 41.1 °F 44.6 °F 93% 30.22 in 3.0 mi East 11.5 mph - 0.11 in Rain Rain
9:53 PM 46.0 °F 39.9 °F 44.1 °F 93% 30.20 in 3.0 mi East 13.8 mph - 0.12 in Rain Rain
10:01 PM 46.4 °F 40.7 °F 44.6 °F 93% 30.19 in 3.0 mi East 12.7 mph 19.6 mph 0.02 in Rain Rain
10:53 PM 46.0 °F 40.6 °F 45.0 °F 96% 30.16 in 4.0 mi East 11.5 mph 19.6 mph 0.09 in Rain Light Rain
11:23 PM 46.4 °F 41.5 °F 44.6 °F 93% 30.15 in 2.5 mi East 10.4 mph 16.1 mph 0.04 in Rain Light Rain
11:34 PM 46.4 °F 41.5 °F 44.6 °F 93% 30.15 in 3.0 mi East 10.4 mph - 0.04 in Rain Light Rain
11:53 PM 46.0 °F 41.4 °F 45.0 °F 96% 30.12 in 2.0 mi East 9.2 mph - 0.06 in Rain Light Rain
11:58 PM 46.4 °F 41.1 °F 44.6 °F 93% 30.13 in 1.5 mi East 11.5 mph - 0.00 in Rain Light Rain